Regional Weather Roundup
Issued by NWS

Home | Current Version | Previous Version | Text Only | Print | Product List | Glossary Off
Versions: 1 2 3 4 5 6 7 8 9 10 11 12 13 14 15 16 17 18 19 20 21 22 23 24 25 26 27 28 29 30 31 32 33 34 35 36 37 38 39 40 41 42 43 44 45 46 47 48 49 50

000
ASUS43 KOAX 031410
RWRNE

WEATHER ROUNDUP FOR NEBRASKA
NATIONAL WEATHER SERVICE OMAHA NE
900 AM CDT FRI JUL 03 2015

NOTES: SATELLITE DATA IS BEING USED TO AUGMENT CLOUD COVER ABOVE
       12000 FEET.
       "FAIR" INDICATES FEW OR NO CLOUDS BELOW 12,000 FEET WITH NO
       SIGNIFICANT WEATHER AND/OR OBSTRUCTIONS TO VISIBILITY.

  * THESE STATIONS DO NOT REPORT WEATHER SUCH AS RAIN...SNOW OR FOG.

NEZ001>004-019>022-054>056-031500-
NEBRASKA PANHANDLE

CITY           SKY/WX    TMP DP  RH WIND       PRES   REMARKS
SCOTTSBLUFF    SUNNY     69  59  70 CALM      30.13F
ALLIANCE       SUNNY     67  60  78 CALM      30.13S
CHADRON        SUNNY     64  59  83 CALM      30.11S
KIMBALL          N/A    N/A N/A N/A MISG        N/A
SIDNEY         MOSUNNY   67  61  81 NW3       30.16S
$$

NEZ057>060-069>072-079>082-031500-
SOUTHWEST NEBRASKA

CITY           SKY/WX    TMP DP  RH WIND       PRES   REMARKS
NORTH PLATTE   SUNNY     65  60  84 CALM      30.09S
IMPERIAL       SUNNY     71  59  65 N6        30.10S
LEXINGTON      CLOUDY    65  64  97 N3        30.07S FOG
MCCOOK         MOSUNNY   67  62  84 E6        30.08R HAZE
OGALLALA       PTSUNNY   66  63  88 CALM      30.11R
$$

NEZ005>010-023>029-035>040-094-031500-
NORTH CENTRAL NEBRASKA

CITY           SKY/WX    TMP DP  RH WIND       PRES   REMARKS
VALENTINE      SUNNY     67  62  84 W5        30.06F
AINSWORTH      SUNNY     66  66 100 CALM      30.07S
BROKEN BOW     MOSUNNY   68  62  81 N8        30.07R
O`NEILL        FOG       64  63  99 CALM      30.05S VSB 3/4
ORD            CLOUDY    66  61  84 N5        30.04S
THEDFORD       SUNNY     66  62  89 CALM      30.09S FOG
$$

NEZ041-046>049-061>064-073>077-083>087-031500-
SOUTH CENTRAL NEBRASKA

CITY           SKY/WX    TMP DP  RH WIND       PRES   REMARKS
GRAND ISLAND   CLOUDY    66  62  87 NE6       30.05S FOG
AURORA         CLOUDY    66  65  97 NE7       30.04S FOG
HASTINGS       CLOUDY    67  62  84 NE10      30.04S
HEBRON         CLOUDY    66  63  91 NE8       30.02S FOG
HOLDREGE       CLOUDY    64  61  91 NE5       30.07R FOG
KEARNEY *      CLOUDY    64  59  82 N9        30.06R
YORK           CLOUDY    64  63  94 NE3       30.04R FOG
$$

NEZ011>018-030>034-042>045-031500-
NORTHEAST NEBRASKA

CITY           SKY/WX    TMP DP  RH WIND       PRES   REMARKS
NORFOLK        CLOUDY    65  63  93 CALM      30.03R FOG
ALBION         CLOUDY    65  60  83 CALM      30.05R HAZE
BLAIR          SUNNY     63  55  75 N3        30.03R
COLUMBUS *     CLOUDY    64  57  77 NE3       30.04R
FREMONT        SUNNY     64  55  71 CALM      30.03S
TEKAMAH        SUNNY     64  58  80 N5        30.02S
WAYNE          MOSUNNY   63  61  91 CALM      30.03S
$$

NEZ050>053-065>068-078-088>093-031500-
SOUTHEAST NEBRASKA

CITY           SKY/WX    TMP DP  RH WIND       PRES   REMARKS
LINCOLN        SUNNY     68  58  70 N6        30.03R
OMAHA EPPLEY   SUNNY     63  57  81 N5        30.02R
BEATRICE       CLOUDY    66  60  82 NE5       30.00S
FALLS CITY     SUNNY     67  60  78 NE7       29.98S
NEBRASKA CITY  SUNNY     64  56  73 CALM      30.00F
PLATTSMOUTH    SUNNY     65  56  74 CALM      30.01S
$$

NEZ044-045-051>053-067-031500-
OMAHA AREA

CITY           SKY/WX    TMP DP  RH WIND       PRES   REMARKS
OMAHA EPPLEY   SUNNY     63  57  81 N5        30.02R
BLAIR          SUNNY     63  55  75 N3        30.03R
FREMONT        SUNNY     64  55  71 CALM      30.03S
MILLARD        SUNNY     66  56  70 CALM      30.02R
OFFUTT AFB     SUNNY     65  57  76 N2        30.01R
PLATTSMOUTH    SUNNY     65  56  74 CALM      30.01S
WAHOO          CLOUDY    65  56  74 CALM      30.02S
$$


USA.gov is the U.S. government's official web portal to all federal, state and local government web resources and services.